This is the latest recevied weather packets stored in our database for station/object EA5CLU-13. If no packets are shown the sender has not sent any weather packets the latest 10 day(s).
| Time | Temp. | Humidity | Pressure | Rain* | Wind** | Luminosity | Snow |
|---|---|---|---|---|---|---|---|
| 1787561311 | 23.33° C | - | 1017.4 hPa | 0 mm | - | - | - |
| 1787561013 | 22.22° C | - | 1017 hPa | 0 mm | - | - | - |
| 1787560713 | 22.78° C | - | 1017.4 hPa | 0 mm | - | - | - |
| 1787560413 | 22.22° C | - | 1017.5 hPa | 0 mm | - | - | - |
| 1787560113 | 21.11° C | - | 1017.5 hPa | 0 mm | - | - | - |
| 1787559813 | 21.67° C | - | 1017.4 hPa | 0 mm | - | - | - |
| 1787559512 | 21.67° C | - | 1017.5 hPa | 0 mm | - | - | - |
| 1787559212 | 21.67° C | - | 1017.7 hPa | 0 mm | - | - | - |
| 1787558912 | 21.67° C | - | 1017 hPa | 0 mm | - | - | - |
| 1787558612 | 21.67° C | - | 1017 hPa | 0 mm | - | - | - |
| 1787558314 | 23.89° C | - | 1018.3 hPa | 0 mm | - | - | - |
| 1787511287 | 25° C | - | 1017.3 hPa | 0 mm | - | - | - |
| 1787510986 | 25° C | - | 1017.5 hPa | 0 mm | - | - | - |
| 1787510687 | 25° C | - | 1017.3 hPa | 0 mm | - | - | - |
| 1787510387 | 25.56° C | - | 1017.5 hPa | 0 mm | - | - | - |
| 1787510086 | 25.56° C | - | 1017.3 hPa | 0 mm | - | - | - |
| 1787509486 | 26.11° C | - | 1017.1 hPa | 0 mm | - | - | - |
| 1787508887 | 26.11° C | - | 1017.3 hPa | 0 mm | - | - | - |
| 1787508587 | 26.67° C | - | 1017.2 hPa | 0 mm | - | - | - |
| 1787507685 | 26.67° C | - | 1017 hPa | 0 mm | - | - | - |
| 1787507387 | 26.67° C | - | 1017.1 hPa | 0 mm | - | - | - |
| 1787507087 | 26.67° C | - | 1017.1 hPa | 0 mm | - | - | - |
| 1787506787 | 26.67° C | - | 1017 hPa | 0 mm | - | - | - |
| 1787505587 | 27.22° C | - | 1017 hPa | 0 mm | - | - | - |
| 1787505287 | 27.22° C | - | 1017.2 hPa | 0 mm | - | - | - |
* Rain latest hour (hover to see other rain measurements)
** Current wind speed in m/s (hover to see current wind gust speed)